Time,TemperatureF,DewpointF,PressureIn,WindDirection,WindDirectionDegrees,WindSpeedMPH,WindSpeedGustMPH,Humidity,HourlyPrecipIn,Conditions,Clouds,dailyrainin,SoftwareType,DateUTC
2013-03-05 00:00:00,29.4,19.5,30.02,WNW,296,0.0,2.0,66,0.00,,,0.00,WUHU216DAVISVP2,2013-03-05 05:00:00,
2013-03-05 00:05:00,29.4,19.5,30.02,WNW,296,0.0,2.0,66,0.00,,,0.00,WUHU216DAVISVP2,2013-03-05 05:05:00,
2013-03-05 00:10:00,29.5,19.6,30.02,WNW,296,0.0,3.0,66,0.00,,,0.00,WUHU216DAVISVP2,2013-03-05 05:10:00,
2013-03-05 00:15:00,29.6,19.7,30.02,WNW,296,1.0,3.0,66,0.00,,,0.00,WUHU216DAVISVP2,2013-03-05 05:15:00,
2013-03-05 00:20:00,29.6,19.7,30.02,WNW,296,0.0,3.0,66,0.00,,,0.00,WUHU216DAVISVP2,2013-03-05 05:20:00,
2013-03-05 00:25:00,29.6,19.7,30.03,WNW,296,0.0,3.0,66,0.00,,,0.00,WUHU216DAVISVP2,2013-03-05 05:25:00,
2013-03-05 00:30:00,29.5,19.6,30.03,WNW,296,0.0,3.0,66,0.00,,,0.00,WUHU216DAVISVP2,2013-03-05 05:30:00,
2013-03-05 00:35:00,29.4,19.9,30.03,WNW,296,0.0,2.0,67,0.00,,,0.00,WUHU216DAVISVP2,2013-03-05 05:35:00,
2013-03-05 00:40:00,29.3,19.8,30.03,WNW,296,0.0,2.0,67,0.00,,,0.00,WUHU216DAVISVP2,2013-03-05 05:40:00,
2013-03-05 00:45:00,29.2,19.7,30.04,WNW,296,0.0,2.0,67,0.00,,,0.00,WUHU216DAVISVP2,2013-03-05 05:45:00,
2013-03-05 00:50:00,29.0,19.5,30.04,WNW,296,0.0,2.0,67,0.00,,,0.00,WUHU216DAVISVP2,2013-03-05 05:50:00,
2013-03-05 00:55:00,28.9,19.7,30.04,WNW,296,0.0,2.0,68,0.00,,,0.00,WUHU216DAVISVP2,2013-03-05 05:55:00,
2013-03-05 01:00:00,28.8,19.6,30.04,WNW,296,0.0,1.0,68,0.00,,,0.00,WUHU216DAVISVP2,2013-03-05 06:00:00,
2013-03-05 01:05:00,28.7,19.5,30.04,WNW,296,0.0,1.0,68,0.00,,,0.00,WUHU216DAVISVP2,2013-03-05 06:05:00,
2013-03-05 01:10:00,28.6,19.8,30.05,WNW,296,0.0,3.0,69,0.00,,,0.00,WUHU216DAVISVP2,2013-03-05 06:10:00,
2013-03-05 01:15:00,28.6,19.8,30.05,WNW,296,0.0,3.0,69,0.00,,,0.00,WUHU216DAVISVP2,2013-03-05 06:15:00,
2013-03-05 01:20:00,28.5,19.7,30.05,WNW,296,0.0,3.0,69,0.00,,,0.00,WUHU216DAVISVP2,2013-03-05 06:20:00,
2013-03-05 01:25:00,28.5,19.7,30.05,WNW,296,0.0,3.0,69,0.00,,,0.00,WUHU216DAVISVP2,2013-03-05 06:25:00,
2013-03-05 01:30:00,28.6,19.8,30.05,North,10,0.0,4.0,69,0.00,,,0.00,WUHU216DAVISVP2,2013-03-05 06:30:00,
2013-03-05 01:35:00,28.6,19.8,30.05,North,355,0.0,4.0,69,0.00,,,0.00,WUHU216DAVISVP2,2013-03-05 06:35:00,
2013-03-05 01:40:00,28.7,19.9,30.05,North,355,0.0,4.0,69,0.00,,,0.00,WUHU216DAVISVP2,2013-03-05 06:40:00,
2013-03-05 01:45:00,28.7,19.9,30.05,North,355,0.0,4.0,69,0.00,,,0.00,WUHU216DAVISVP2,2013-03-05 06:45:00,
2013-03-05 01:50:00,28.7,19.9,30.05,North,355,0.0,2.0,69,0.00,,,0.00,WUHU216DAVISVP2,2013-03-05 06:50:00,
2013-03-05 01:55:00,28.6,19.8,30.05,North,355,0.0,1.0,69,0.00,,,0.00,WUHU216DAVISVP2,2013-03-05 06:55:00,
2013-03-05 02:00:00,28.6,19.8,30.05,North,355,0.0,1.0,69,0.00,,,0.00,WUHU216DAVISVP2,2013-03-05 07:00:00,
2013-03-05 02:05:00,28.5,19.7,30.05,North,355,0.0,1.0,69,0.00,,,0.00,WUHU216DAVISVP2,2013-03-05 07:05:00,
2013-03-05 02:10:00,28.4,19.6,30.05,North,355,0.0,1.0,69,0.00,,,0.00,WUHU216DAVISVP2,2013-03-05 07:10:00,
2013-03-05 02:15:00,28.3,19.5,30.05,North,355,0.0,1.0,69,0.00,,,0.00,WUHU216DAVISVP2,2013-03-05 07:15:00,
2013-03-05 02:20:00,28.1,19.3,30.04,North,355,0.0,1.0,69,0.00,,,0.00,WUHU216DAVISVP2,2013-03-05 07:20:00,
2013-03-05 02:25:00,27.8,19.3,30.04,North,355,0.0,1.0,70,0.00,,,0.00,WUHU216DAVISVP2,2013-03-05 07:25:00,
2013-03-05 02:30:00,27.5,19.4,30.05,North,355,0.0,0.0,71,0.00,,,0.00,WUHU216DAVISVP2,2013-03-05 07:30:00,
2013-03-05 02:35:00,27.3,19.2,30.04,North,355,0.0,0.0,71,0.00,,,0.00,WUHU216DAVISVP2,2013-03-05 07:35:00,
2013-03-05 02:40:00,27.0,19.2,30.04,North,355,0.0,0.0,72,0.00,,,0.00,WUHU216DAVISVP2,2013-03-05 07:40:00,
2013-03-05 02:45:00,26.9,19.1,30.04,North,355,0.0,0.0,72,0.00,,,0.00,WUHU216DAVISVP2,2013-03-05 07:45:00,
2013-03-05 02:50:00,26.7,19.3,30.04,North,355,0.0,0.0,73,0.00,,,0.00,WUHU216DAVISVP2,2013-03-05 07:50:00,
2013-03-05 02:55:00,26.6,19.2,30.04,North,355,0.0,0.0,73,0.00,,,0.00,WUHU216DAVISVP2,2013-03-05 07:55:00,
2013-03-05 03:00:00,26.4,19.3,30.04,North,355,0.0,0.0,74,0.00,,,0.00,WUHU216DAVISVP2,2013-03-05 08:00:00,
2013-03-05 03:05:00,26.2,19.1,30.04,North,355,0.0,0.0,74,0.00,,,0.00,WUHU216DAVISVP2,2013-03-05 08:05:00,
2013-03-05 03:10:00,26.1,19.0,30.04,North,355,0.0,0.0,74,0.00,,,0.00,WUHU216DAVISVP2,2013-03-05 08:10:00,
2013-03-05 03:15:00,25.9,18.8,30.05,North,355,0.0,0.0,74,0.00,,,0.00,WUHU216DAVISVP2,2013-03-05 08:15:00,
2013-03-05 03:20:00,25.7,18.9,30.04,North,355,0.0,0.0,75,0.00,,,0.00,WUHU216DAVISVP2,2013-03-05 08:20:00,
2013-03-05 03:25:00,25.7,19.2,30.04,North,355,0.0,0.0,76,0.00,,,0.00,WUHU216DAVISVP2,2013-03-05 08:25:00,
2013-03-05 03:30:00,25.6,19.1,30.04,North,355,0.0,0.0,76,0.00,,,0.00,WUHU216DAVISVP2,2013-03-05 08:30:00,
2013-03-05 03:35:00,25.6,19.1,30.05,North,355,0.0,0.0,76,0.00,,,0.00,WUHU216DAVISVP2,2013-03-05 08:35:00,
2013-03-05 03:40:00,25.6,19.1,30.05,North,355,0.0,1.0,76,0.00,,,0.00,WUHU216DAVISVP2,2013-03-05 08:40:00,
2013-03-05 03:45:00,25.6,19.1,30.05,North,355,0.0,1.0,76,0.00,,,0.00,WUHU216DAVISVP2,2013-03-05 08:45:00,
2013-03-05 03:50:00,25.5,19.0,30.05,North,355,0.0,1.0,76,0.00,,,0.00,WUHU216DAVISVP2,2013-03-05 08:50:00,
2013-03-05 03:55:00,25.3,18.8,30.05,North,355,0.0,1.0,76,0.00,,,0.00,WUHU216DAVISVP2,2013-03-05 08:55:00,
2013-03-05 04:00:00,25.2,19.0,30.05,North,355,0.0,0.0,77,0.00,,,0.00,WUHU216DAVISVP2,2013-03-05 09:00:00,
2013-03-05 04:05:00,25.2,19.3,30.05,North,355,0.0,0.0,78,0.00,,,0.00,WUHU216DAVISVP2,2013-03-05 09:05:00,
2013-03-05 04:10:00,25.2,19.3,30.05,North,355,0.0,1.0,78,0.00,,,0.00,WUHU216DAVISVP2,2013-03-05 09:10:00,
2013-03-05 04:15:00,25.3,19.4,30.05,North,355,0.0,2.0,78,0.00,,,0.00,WUHU216DAVISVP2,2013-03-05 09:15:00,
2013-03-05 04:20:00,25.3,19.4,30.06,North,355,0.0,2.0,78,0.00,,,0.00,WUHU216DAVISVP2,2013-03-05 09:20:00,
2013-03-05 04:25:00,25.3,19.4,30.06,North,355,0.0,2.0,78,0.00,,,0.00,WUHU216DAVISVP2,2013-03-05 09:25:00,
2013-03-05 04:30:00,25.2,19.3,30.06,North,355,0.0,1.0,78,0.00,,,0.00,WUHU216DAVISVP2,2013-03-05 09:30:00,
2013-03-05 04:35:00,25.1,19.2,30.06,North,355,0.0,1.0,78,0.00,,,0.00,WUHU216DAVISVP2,2013-03-05 09:35:00,
2013-03-05 04:40:00,25.1,19.2,30.06,North,355,0.0,2.0,78,0.00,,,0.00,WUHU216DAVISVP2,2013-03-05 09:40:00,
2013-03-05 04:45:00,25.1,19.2,30.06,North,355,0.0,2.0,78,0.00,,,0.00,WUHU216DAVISVP2,2013-03-05 09:45:00,
2013-03-05 04:50:00,25.0,19.1,30.07,North,355,0.0,2.0,78,0.00,,,0.00,WUHU216DAVISVP2,2013-03-05 09:50:00,
2013-03-05 04:55:00,24.9,19.0,30.07,North,355,0.0,2.0,78,0.00,,,0.00,WUHU216DAVISVP2,2013-03-05 09:55:00,
2013-03-05 05:00:00,24.9,19.0,30.07,North,355,0.0,1.0,78,0.00,,,0.00,WUHU216DAVISVP2,2013-03-05 10:00:00,
2013-03-05 05:05:00,24.8,19.2,30.07,North,355,0.0,0.0,79,0.00,,,0.00,WUHU216DAVISVP2,2013-03-05 10:05:00,
2013-03-05 05:10:00,24.8,19.2,30.07,North,355,0.0,1.0,79,0.00,,,0.00,WUHU216DAVISVP2,2013-03-05 10:10:00,
2013-03-05 05:15:00,24.8,19.2,30.07,North,355,0.0,1.0,79,0.00,,,0.00,WUHU216DAVISVP2,2013-03-05 10:15:00,
2013-03-05 05:20:00,24.7,19.1,30.07,North,355,0.0,1.0,79,0.00,,,0.00,WUHU216DAVISVP2,2013-03-05 10:20:00,
2013-03-05 05:25:00,24.7,19.1,30.07,North,355,0.0,1.0,79,0.00,,,0.00,WUHU216DAVISVP2,2013-03-05 10:25:00,
2013-03-05 05:30:00,24.6,19.0,30.07,North,355,0.0,1.0,79,0.00,,,0.00,WUHU216DAVISVP2,2013-03-05 10:30:00,
2013-03-05 05:35:00,24.6,19.0,30.07,North,355,0.0,0.0,79,0.00,,,0.00,WUHU216DAVISVP2,2013-03-05 10:35:00,
2013-03-05 05:40:00,24.7,19.1,30.07,North,355,0.0,0.0,79,0.00,,,0.00,WUHU216DAVISVP2,2013-03-05 10:40:00,
2013-03-05 05:45:00,24.7,19.1,30.07,North,355,0.0,0.0,79,0.00,,,0.00,WUHU216DAVISVP2,2013-03-05 10:45:00,
2013-03-05 05:50:00,24.8,19.2,30.07,North,355,0.0,0.0,79,0.00,,,0.00,WUHU216DAVISVP2,2013-03-05 10:50:00,
2013-03-05 05:55:00,24.7,19.1,30.07,North,355,0.0,0.0,79,0.00,,,0.00,WUHU216DAVISVP2,2013-03-05 10:55:00,
2013-03-05 06:00:00,24.7,19.1,30.07,North,355,0.0,1.0,79,0.00,,,0.00,WUHU216DAVISVP2,2013-03-05 11:00:00,
2013-03-05 06:05:00,24.6,19.0,30.07,North,355,0.0,1.0,79,0.00,,,0.00,WUHU216DAVISVP2,2013-03-05 11:05:00,
2013-03-05 06:10:00,24.5,18.9,30.08,North,355,0.0,1.0,79,0.00,,,0.00,WUHU216DAVISVP2,2013-03-05 11:10:00,
2013-03-05 06:15:00,24.4,18.8,30.07,North,355,0.0,1.0,79,0.00,,,0.00,WUHU216DAVISVP2,2013-03-05 11:15:00,
2013-03-05 06:20:00,24.3,18.7,30.07,North,355,0.0,0.0,79,0.00,,,0.00,WUHU216DAVISVP2,2013-03-05 11:20:00,
2013-03-05 06:25:00,24.2,18.9,30.08,North,355,0.0,0.0,80,0.00,,,0.00,WUHU216DAVISVP2,2013-03-05 11:25:00,
2013-03-05 06:30:00,24.0,18.7,30.08,North,355,0.0,0.0,80,0.00,,,0.00,WUHU216DAVISVP2,2013-03-05 11:30:00,
2013-03-05 06:35:00,23.9,18.6,30.08,North,355,0.0,0.0,80,0.00,,,0.00,WUHU216DAVISVP2,2013-03-05 11:35:00,
2013-03-05 06:40:00,23.8,18.5,30.08,North,355,0.0,0.0,80,0.00,,,0.00,WUHU216DAVISVP2,2013-03-05 11:40:00,
2013-03-05 06:45:00,23.7,18.4,30.08,North,355,0.0,0.0,80,0.00,,,0.00,WUHU216DAVISVP2,2013-03-05 11:45:00,
2013-03-05 06:50:00,23.8,19.1,30.08,North,355,0.0,0.0,82,0.00,,,0.00,WUHU216DAVISVP2,2013-03-05 11:50:00,
2013-03-05 06:55:00,23.9,19.2,30.08,North,355,0.0,0.0,82,0.00,,,0.00,WUHU216DAVISVP2,2013-03-05 11:55:00,
2013-03-05 07:00:00,24.1,19.4,30.08,North,355,0.0,0.0,82,0.00,,,0.00,WUHU216DAVISVP2,2013-03-05 12:00:00,
2013-03-05 07:05:00,24.4,19.7,30.08,North,355,0.0,0.0,82,0.00,,,0.00,WUHU216DAVISVP2,2013-03-05 12:05:00,
2013-03-05 07:10:00,24.9,20.2,30.08,North,355,1.0,1.0,82,0.00,,,0.00,WUHU216DAVISVP2,2013-03-05 12:10:00,
2013-03-05 07:15:00,25.4,20.4,30.08,North,355,0.0,2.0,81,0.00,,,0.00,WUHU216DAVISVP2,2013-03-05 12:15:00,
2013-03-05 07:20:00,25.7,20.4,30.08,North,355,0.0,2.0,80,0.00,,,0.00,WUHU216DAVISVP2,2013-03-05 12:20:00,
2013-03-05 07:25:00,25.9,20.6,30.08,North,355,0.0,2.0,80,0.00,,,0.00,WUHU216DAVISVP2,2013-03-05 12:25:00,
2013-03-05 07:30:00,26.2,20.9,30.08,North,355,0.0,1.0,80,0.00,,,0.00,WUHU216DAVISVP2,2013-03-05 12:30:00,
2013-03-05 07:35:00,26.6,21.0,30.08,North,355,0.0,0.0,79,0.00,,,0.00,WUHU216DAVISVP2,2013-03-05 12:35:00,
2013-03-05 07:40:00,26.8,21.2,30.09,North,355,0.0,0.0,79,0.00,,,0.00,WUHU216DAVISVP2,2013-03-05 12:40:00,
2013-03-05 07:45:00,27.2,21.0,30.08,North,355,0.0,1.0,77,0.00,,,0.00,WUHU216DAVISVP2,2013-03-05 12:45:00,
2013-03-05 07:50:00,27.6,21.1,30.09,North,355,0.0,1.0,76,0.00,,,0.00,WUHU216DAVISVP2,2013-03-05 12:50:00,
2013-03-05 07:55:00,28.1,21.2,30.09,North,355,0.0,2.0,75,0.00,,,0.00,WUHU216DAVISVP2,2013-03-05 12:55:00,
2013-03-05 08:00:00,28.8,21.3,30.09,North,355,0.0,2.0,73,0.00,,,0.00,WUHU216DAVISVP2,2013-03-05 13:00:00,
2013-03-05 08:05:00,29.4,21.2,30.09,North,355,0.0,2.0,71,0.00,,,0.00,WUHU216DAVISVP2,2013-03-05 13:05:00,
2013-03-05 08:10:00,29.9,21.0,30.09,North,11,0.0,2.0,69,0.00,,,0.00,WUHU216DAVISVP2,2013-03-05 13:10:00,
2013-03-05 08:15:00,30.4,21.5,30.09,NE,40,0.0,4.0,69,0.00,,,0.00,WUHU216DAVISVP2,2013-03-05 13:15:00,
2013-03-05 08:20:00,31.1,21.1,30.09,NNE,18,0.0,4.0,66,0.00,,,0.00,WUHU216DAVISVP2,2013-03-05 13:20:00,
2013-03-05 08:25:00,31.7,21.3,30.09,NNE,17,0.0,4.0,65,0.00,,,0.00,WUHU216DAVISVP2,2013-03-05 13:25:00,
2013-03-05 08:30:00,32.3,21.5,30.09,NW,318,0.0,4.0,64,0.00,,,0.00,WUHU216DAVISVP2,2013-03-05 13:30:00,
2013-03-05 08:35:00,32.7,21.6,30.09,NW,321,1.0,4.0,63,0.00,,,0.00,WUHU216DAVISVP2,2013-03-05 13:35:00,
2013-03-05 08:40:00,33.1,20.8,30.09,WNW,284,0.0,7.0,60,0.00,,,0.00,WUHU216DAVISVP2,2013-03-05 13:40:00,
2013-03-05 08:45:00,33.4,21.4,30.09,North,10,1.0,7.0,61,0.00,,,0.00,WUHU216DAVISVP2,2013-03-05 13:45:00,
2013-03-05 08:50:00,34.1,21.3,30.09,NE,37,1.0,7.0,59,0.00,,,0.00,WUHU216DAVISVP2,2013-03-05 13:50:00,
2013-03-05 08:55:00,34.4,21.2,30.09,West,281,0.0,7.0,58,0.00,,,0.00,WUHU216DAVISVP2,2013-03-05 13:55:00,
2013-03-05 09:00:00,34.8,21.6,30.09,WNW,294,2.0,4.0,58,0.00,,,0.00,WUHU216DAVISVP2,2013-03-05 14:00:00,
2013-03-05 09:05:00,35.3,21.6,30.09,WNW,282,1.0,4.0,57,0.00,,,0.00,WUHU216DAVISVP2,2013-03-05 14:05:00,
2013-03-05 09:10:00,35.6,21.0,30.09,ENE,67,1.0,5.0,55,0.00,,,0.00,WUHU216DAVISVP2,2013-03-05 14:10:00,
2013-03-05 09:15:00,36.0,21.4,30.09,NNW,331,0.0,5.0,55,0.00,,,0.00,WUHU216DAVISVP2,2013-03-05 14:15:00,
2013-03-05 09:20:00,36.5,21.8,30.09,NE,49,0.0,5.0,55,0.00,,,0.00,WUHU216DAVISVP2,2013-03-05 14:20:00,
2013-03-05 09:25:00,36.8,21.3,30.09,WSW,250,0.0,5.0,53,0.00,,,0.00,WUHU216DAVISVP2,2013-03-05 14:25:00,
2013-03-05 09:30:00,37.1,22.0,30.09,NNE,30,1.0,5.0,54,0.00,,,0.00,WUHU216DAVISVP2,2013-03-05 14:30:00,
2013-03-05 09:35:00,37.4,20.9,30.09,WSW,256,3.0,7.0,51,0.00,,,0.00,WUHU216DAVISVP2,2013-03-05 14:35:00,
2013-03-05 09:40:00,37.4,21.4,30.09,West,267,4.0,7.0,52,0.00,,,0.00,WUHU216DAVISVP2,2013-03-05 14:40:00,
2013-03-05 09:46:00,37.5,20.5,30.09,NNW,328,0.0,7.0,50,0.00,,,0.00,WUHU216DAVISVP2,2013-03-05 14:46:00,
2013-03-05 09:51:00,37.3,19.4,30.09,WNW,299,3.0,8.0,48,0.00,,,0.00,WUHU216DAVISVP2,2013-03-05 14:51:00,
2013-03-05 09:56:00,37.5,20.1,30.08,North,355,2.0,8.0,49,0.00,,,0.00,WUHU216DAVISVP2,2013-03-05 14:56:00,
2013-03-05 10:01:00,38.0,20.0,30.08,WNW,295,3.0,8.0,48,0.00,,,0.00,WUHU216DAVISVP2,2013-03-05 15:01:00,
2013-03-05 10:06:00,38.2,20.2,30.08,North,9,3.0,8.0,48,0.00,,,0.00,WUHU216DAVISVP2,2013-03-05 15:06:00,
2013-03-05 10:11:00,38.4,19.9,30.08,WSW,256,1.0,6.0,47,0.00,,,0.00,WUHU216DAVISVP2,2013-03-05 15:11:00,
2013-03-05 10:16:00,38.7,20.1,30.08,WNW,301,2.0,6.0,47,0.00,,,0.00,WUHU216DAVISVP2,2013-03-05 15:16:00,
2013-03-05 10:21:00,38.9,20.8,30.08,WNW,302,2.0,5.0,48,0.00,,,0.00,WUHU216DAVISVP2,2013-03-05 15:21:00,
2013-03-05 10:26:00,39.2,20.6,30.08,West,280,3.0,5.0,47,0.00,,,0.00,WUHU216DAVISVP2,2013-03-05 15:26:00,
2013-03-05 10:31:00,39.5,21.3,30.07,WNW,290,2.0,5.0,48,0.00,,,0.00,WUHU216DAVISVP2,2013-03-05 15:31:00,
2013-03-05 10:36:00,39.7,20.5,30.07,NNW,338,0.0,5.0,46,0.00,,,0.00,WUHU216DAVISVP2,2013-03-05 15:36:00,
2013-03-05 10:41:00,40.1,21.4,30.07,NNW,336,1.0,5.0,47,0.00,,,0.00,WUHU216DAVISVP2,2013-03-05 15:41:00,
2013-03-05 10:46:00,40.3,20.5,30.06,WNW,294,1.0,4.0,45,0.00,,,0.00,WUHU216DAVISVP2,2013-03-05 15:46:00,
2013-03-05 10:51:00,40.5,20.7,30.06,West,268,4.0,6.0,45,0.00,,,0.00,WUHU216DAVISVP2,2013-03-05 15:51:00,
2013-03-05 10:56:00,40.9,21.1,30.06,WNW,285,3.0,6.0,45,0.00,,,0.00,WUHU216DAVISVP2,2013-03-05 15:56:00,
2013-03-05 11:01:00,41.2,20.8,30.06,West,277,0.0,6.0,44,0.00,,,0.00,WUHU216DAVISVP2,2013-03-05 16:01:00,
2013-03-05 11:06:00,41.4,21.0,30.06,ENE,67,1.0,6.0,44,0.00,,,0.00,WUHU216DAVISVP2,2013-03-05 16:06:00,
2013-03-05 11:11:00,41.4,19.8,30.06,WNW,288,5.0,7.0,42,0.00,,,0.00,WUHU216DAVISVP2,2013-03-05 16:11:00,
2013-03-05 11:16:00,41.1,19.6,30.05,West,278,2.0,7.0,42,0.00,,,0.00,WUHU216DAVISVP2,2013-03-05 16:16:00,
2013-03-05 11:21:00,41.5,20.5,30.05,NNE,22,0.0,7.0,43,0.00,,,0.00,WUHU216DAVISVP2,2013-03-05 16:21:00,
2013-03-05 11:26:00,41.9,20.3,30.04,North,9,2.0,6.0,42,0.00,,,0.00,WUHU216DAVISVP2,2013-03-05 16:26:00,
2013-03-05 11:31:00,42.3,20.1,30.04,WNW,292,2.0,6.0,41,0.00,,,0.00,WUHU216DAVISVP2,2013-03-05 16:31:00,
2013-03-05 11:36:00,42.3,19.5,30.04,WNW,295,3.0,9.0,40,0.00,,,0.00,WUHU216DAVISVP2,2013-03-05 16:36:00,
2013-03-05 11:41:00,42.8,20.5,30.05,North,11,0.0,9.0,41,0.00,,,0.00,WUHU216DAVISVP2,2013-03-05 16:41:00,
2013-03-05 11:46:00,43.2,19.7,30.05,West,260,1.0,9.0,39,0.00,,,0.00,WUHU216DAVISVP2,2013-03-05 16:46:00,
2013-03-05 11:51:00,43.7,21.9,30.05,West,273,0.0,9.0,42,0.00,,,0.00,WUHU216DAVISVP2,2013-03-05 16:51:00,
2013-03-05 11:56:00,44.0,21.0,30.05,West,265,1.0,4.0,40,0.00,,,0.00,WUHU216DAVISVP2,2013-03-05 16:56:00,
2013-03-05 12:01:00,44.0,20.4,30.05,West,265,2.0,5.0,39,0.00,,,0.00,WUHU216DAVISVP2,2013-03-05 17:01:00,
2013-03-05 12:06:00,44.2,21.8,30.05,NNE,15,0.0,5.0,41,0.00,,,0.00,WUHU216DAVISVP2,2013-03-05 17:06:00,
2013-03-05 12:11:00,44.5,21.5,30.05,WNW,296,1.0,5.0,40,0.00,,,0.00,WUHU216DAVISVP2,2013-03-05 17:11:00,
2013-03-05 12:16:00,44.9,20.8,30.04,West,271,2.0,7.0,38,0.00,,,0.00,WUHU216DAVISVP2,2013-03-05 17:16:00,
2013-03-05 12:21:00,45.1,19.0,30.04,West,269,2.0,7.0,35,0.00,,,0.00,WUHU216DAVISVP2,2013-03-05 17:21:00,
2013-03-05 12:26:00,45.1,21.0,30.04,NNW,344,2.0,7.0,38,0.00,,,0.00,WUHU216DAVISVP2,2013-03-05 17:26:00,
2013-03-05 12:31:00,45.5,20.7,30.03,ENE,75,2.0,7.0,37,0.00,,,0.00,WUHU216DAVISVP2,2013-03-05 17:31:00,
2013-03-05 12:36:00,45.6,19.9,30.03,NW,321,0.0,5.0,36,0.00,,,0.00,WUHU216DAVISVP2,2013-03-05 17:36:00,
2013-03-05 12:41:00,46.0,20.9,30.03,NNW,328,0.0,5.0,37,0.00,,,0.00,WUHU216DAVISVP2,2013-03-05 17:41:00,
2013-03-05 12:46:00,46.4,19.3,30.02,North,351,1.0,5.0,34,0.00,,,0.00,WUHU216DAVISVP2,2013-03-05 17:46:00,
2013-03-05 12:51:00,46.8,21.7,30.02,North,350,1.0,5.0,37,0.00,,,0.00,WUHU216DAVISVP2,2013-03-05 17:51:00,
2013-03-05 12:56:00,47.3,20.1,30.02,ENE,63,2.0,6.0,34,0.00,,,0.00,WUHU216DAVISVP2,2013-03-05 17:56:00,
2013-03-05 13:01:00,47.5,18.9,30.01,NNE,24,1.0,6.0,32,0.00,,,0.00,WUHU216DAVISVP2,2013-03-05 18:01:00,
2013-03-05 13:06:00,47.7,19.7,30.02,NE,44,0.0,6.0,33,0.00,,,0.00,WUHU216DAVISVP2,2013-03-05 18:06:00,
2013-03-05 13:11:00,47.5,20.3,30.01,NNE,32,3.0,6.0,34,0.00,,,0.00,WUHU216DAVISVP2,2013-03-05 18:11:00,
2013-03-05 13:16:00,47.4,20.9,30.01,East,83,0.0,4.0,35,0.00,,,0.00,WUHU216DAVISVP2,2013-03-05 18:16:00,
2013-03-05 13:21:00,47.6,21.0,30.00,East,83,2.0,4.0,35,0.00,,,0.00,WUHU216DAVISVP2,2013-03-05 18:21:00,
2013-03-05 13:26:00,47.6,19.7,30.00,ENE,69,0.0,6.0,33,0.00,,,0.00,WUHU216DAVISVP2,2013-03-05 18:26:00,
2013-03-05 13:31:00,47.3,19.4,29.99,East,98,0.0,6.0,33,0.00,,,0.00,WUHU216DAVISVP2,2013-03-05 18:31:00,
2013-03-05 13:36:00,47.3,19.4,29.99,ENE,78,1.0,6.0,33,0.00,,,0.00,WUHU216DAVISVP2,2013-03-05 18:36:00,
2013-03-05 13:41:00,47.5,19.6,29.99,NE,50,4.0,6.0,33,0.00,,,0.00,WUHU216DAVISVP2,2013-03-05 18:41:00,
2013-03-05 13:46:00,47.7,19.7,29.99,East,97,6.0,6.0,33,0.00,,,0.00,WUHU216DAVISVP2,2013-03-05 18:46:00,
2013-03-05 13:51:00,47.5,18.1,29.99,ENE,61,2.0,8.0,31,0.00,,,0.00,WUHU216DAVISVP2,2013-03-05 18:51:00,
2013-03-05 13:56:00,47.4,19.5,29.98,North,360,1.0,8.0,33,0.00,,,0.00,WUHU216DAVISVP2,2013-03-05 18:56:00,
2013-03-05 14:01:00,47.4,20.2,29.98,NNE,19,2.0,8.0,34,0.00,,,0.00,WUHU216DAVISVP2,2013-03-05 19:01:00,
2013-03-05 14:06:00,47.5,19.6,29.98,WNW,287,0.0,7.0,33,0.00,,,0.00,WUHU216DAVISVP2,2013-03-05 19:06:00,
2013-03-05 14:11:00,47.4,18.8,29.98,WNW,287,0.0,7.0,32,0.00,,,0.00,WUHU216DAVISVP2,2013-03-05 19:11:00,
2013-03-05 14:16:00,47.3,20.1,29.98,North,5,1.0,5.0,34,0.00,,,0.00,WUHU216DAVISVP2,2013-03-05 19:16:00,
2013-03-05 14:21:00,47.4,20.2,29.98,North,350,0.0,5.0,34,0.00,,,0.00,WUHU216DAVISVP2,2013-03-05 19:21:00,
2013-03-05 14:26:00,47.4,20.2,29.98,SE,126,3.0,4.0,34,0.00,,,0.00,WUHU216DAVISVP2,2013-03-05 19:26:00,
2013-03-05 14:31:00,47.3,20.1,29.98,NNE,32,0.0,4.0,34,0.00,,,0.00,WUHU216DAVISVP2,2013-03-05 19:31:00,
2013-03-05 14:36:00,47.2,19.3,29.97,ENE,59,3.0,4.0,33,0.00,,,0.00,WUHU216DAVISVP2,2013-03-05 19:36:00,
2013-03-05 14:41:00,47.2,20.0,29.97,ENE,59,0.0,4.0,34,0.00,,,0.00,WUHU216DAVISVP2,2013-03-05 19:41:00,
2013-03-05 14:46:00,47.6,19.7,29.97,ENE,59,0.0,3.0,33,0.00,,,0.00,WUHU216DAVISVP2,2013-03-05 19:46:00,
2013-03-05 14:51:00,48.3,20.3,29.97,ENE,63,2.0,3.0,33,0.00,,,0.00,WUHU216DAVISVP2,2013-03-05 19:51:00,
2013-03-05 14:56:00,48.8,20.7,29.97,ENE,63,1.0,5.0,33,0.00,,,0.00,WUHU216DAVISVP2,2013-03-05 19:56:00,
2013-03-05 15:01:00,49.3,23.2,29.96,SE,135,1.0,5.0,36,0.00,,,0.00,WUHU216DAVISVP2,2013-03-05 20:01:00,
2013-03-05 15:06:00,49.3,22.6,29.96,East,90,0.0,5.0,35,0.00,,,0.00,WUHU216DAVISVP2,2013-03-05 20:06:00,
2013-03-05 15:11:00,49.1,21.7,29.96,ESE,109,3.0,7.0,34,0.00,,,0.00,WUHU216DAVISVP2,2013-03-05 20:11:00,
2013-03-05 15:16:00,48.4,21.1,29.96,ESE,105,2.0,7.0,34,0.00,,,0.00,WUHU216DAVISVP2,2013-03-05 20:16:00,
2013-03-05 15:21:00,48.1,22.2,29.95,East,86,3.0,7.0,36,0.00,,,0.00,WUHU216DAVISVP2,2013-03-05 20:21:00,
2013-03-05 15:26:00,47.7,24.4,29.95,ENE,72,2.0,7.0,40,0.00,,,0.00,WUHU216DAVISVP2,2013-03-05 20:26:00,
2013-03-05 15:31:00,47.2,24.5,29.95,SE,128,7.0,12.0,41,0.00,,,0.00,WUHU216DAVISVP2,2013-03-05 20:31:00,
2013-03-05 15:36:00,46.3,24.3,29.95,SE,132,3.0,12.0,42,0.00,,,0.00,WUHU216DAVISVP2,2013-03-05 20:36:00,
2013-03-05 15:41:00,46.3,24.3,29.95,East,81,2.0,12.0,42,0.00,,,0.00,WUHU216DAVISVP2,2013-03-05 20:41:00,
2013-03-05 15:46:00,46.2,23.6,29.95,ESE,117,4.0,12.0,41,0.00,,,0.00,WUHU216DAVISVP2,2013-03-05 20:46:00,
2013-03-05 15:51:00,46.2,23.6,29.95,East,97,1.0,10.0,41,0.00,,,0.00,WUHU216DAVISVP2,2013-03-05 20:51:00,
2013-03-05 15:56:00,46.4,23.2,29.95,ESE,106,1.0,10.0,40,0.00,,,0.00,WUHU216DAVISVP2,2013-03-05 20:56:00,
2013-03-05 16:01:00,46.6,23.4,29.95,East,98,1.0,10.0,40,0.00,,,0.00,WUHU216DAVISVP2,2013-03-05 21:01:00,
2013-03-05 16:06:00,46.5,23.9,29.95,NE,49,4.0,8.0,41,0.00,,,0.00,WUHU216DAVISVP2,2013-03-05 21:06:00,
2013-03-05 16:11:00,45.8,25.0,29.96,East,98,2.0,8.0,44,0.00,,,0.00,WUHU216DAVISVP2,2013-03-05 21:11:00,
2013-03-05 16:16:00,45.4,25.2,29.96,ESE,108,2.0,7.0,45,0.00,,,0.00,WUHU216DAVISVP2,2013-03-05 21:16:00,
2013-03-05 16:21:00,45.5,25.3,29.96,East,88,2.0,7.0,45,0.00,,,0.00,WUHU216DAVISVP2,2013-03-05 21:21:00,
2013-03-05 16:26:00,45.4,25.2,29.96,ESE,115,5.0,6.0,45,0.00,,,0.00,WUHU216DAVISVP2,2013-03-05 21:26:00,
2013-03-05 16:31:00,45.2,25.0,29.96,East,100,1.0,6.0,45,0.00,,,0.00,WUHU216DAVISVP2,2013-03-05 21:31:00,
2013-03-05 16:36:00,44.9,25.3,29.96,ESE,107,5.0,10.0,46,0.00,,,0.00,WUHU216DAVISVP2,2013-03-05 21:36:00,
2013-03-05 16:41:00,44.5,25.4,29.96,East,94,1.0,10.0,47,0.00,,,0.00,WUHU216DAVISVP2,2013-03-05 21:41:00,
2013-03-05 16:46:00,44.2,25.7,29.96,ESE,113,2.0,10.0,48,0.00,,,0.00,WUHU216DAVISVP2,2013-03-05 21:46:00,
2013-03-05 16:51:00,44.0,25.5,29.96,ESE,108,2.0,10.0,48,0.00,,,0.00,WUHU216DAVISVP2,2013-03-05 21:51:00,
2013-03-05 16:56:00,43.9,25.4,29.96,ESE,116,1.0,5.0,48,0.00,,,0.00,WUHU216DAVISVP2,2013-03-05 21:56:00,
2013-03-05 17:01:00,43.8,25.8,29.96,East,84,1.0,5.0,49,0.00,,,0.00,WUHU216DAVISVP2,2013-03-05 22:01:00,
2013-03-05 17:06:00,43.8,26.3,29.96,ESE,118,1.0,5.0,50,0.00,,,0.00,WUHU216DAVISVP2,2013-03-05 22:06:00,
2013-03-05 17:11:00,43.6,26.1,29.96,East,98,0.0,5.0,50,0.00,,,0.00,WUHU216DAVISVP2,2013-03-05 22:11:00,
2013-03-05 17:16:00,43.5,27.0,29.96,ESE,104,0.0,5.0,52,0.00,,,0.00,WUHU216DAVISVP2,2013-03-05 22:16:00,
2013-03-05 17:21:00,43.3,26.8,29.96,ESE,105,1.0,5.0,52,0.00,,,0.00,WUHU216DAVISVP2,2013-03-05 22:21:00,
2013-03-05 17:26:00,43.2,27.2,29.96,ESE,117,1.0,4.0,53,0.00,,,0.00,WUHU216DAVISVP2,2013-03-05 22:26:00,
2013-03-05 17:31:00,42.9,26.9,29.96,ESE,103,2.0,4.0,53,0.00,,,0.00,WUHU216DAVISVP2,2013-03-05 22:31:00,
2013-03-05 17:36:00,42.6,26.7,29.96,ESE,112,5.0,5.0,53,0.00,,,0.00,WUHU216DAVISVP2,2013-03-05 22:36:00,
2013-03-05 17:41:00,42.4,26.5,29.96,SE,133,3.0,7.0,53,0.00,,,0.00,WUHU216DAVISVP2,2013-03-05 22:41:00,
2013-03-05 17:46:00,42.2,26.3,29.96,ESE,105,3.0,7.0,53,0.00,,,0.00,WUHU216DAVISVP2,2013-03-05 22:46:00,
2013-03-05 17:51:00,42.0,26.6,29.96,East,94,2.0,7.0,54,0.00,,,0.00,WUHU216DAVISVP2,2013-03-05 22:51:00,
2013-03-05 17:56:00,41.9,26.9,29.96,ESE,116,1.0,7.0,55,0.00,,,0.00,WUHU216DAVISVP2,2013-03-05 22:56:00,
2013-03-05 18:01:00,41.9,26.9,29.96,ESE,116,1.0,7.0,55,0.00,,,0.00,WUHU216DAVISVP2,2013-03-05 23:01:00,
2013-03-05 18:06:00,41.8,27.3,29.96,ESE,111,0.0,7.0,56,0.00,,,0.00,WUHU216DAVISVP2,2013-03-05 23:06:00,
2013-03-05 18:11:00,41.6,27.1,29.96,ESE,111,1.0,7.0,56,0.00,,,0.00,WUHU216DAVISVP2,2013-03-05 23:11:00,
2013-03-05 18:16:00,41.5,27.0,29.96,ESE,109,1.0,5.0,56,0.00,,,0.00,WUHU216DAVISVP2,2013-03-05 23:16:00,
2013-03-05 18:21:00,41.4,27.3,29.96,ESE,106,0.0,5.0,57,0.00,,,0.00,WUHU216DAVISVP2,2013-03-05 23:21:00,
2013-03-05 18:26:00,41.3,27.2,29.96,ESE,121,2.0,5.0,57,0.00,,,0.00,WUHU216DAVISVP2,2013-03-05 23:26:00,
2013-03-05 18:31:00,41.2,27.2,29.95,ESE,111,0.0,5.0,57,0.00,,,0.00,WUHU216DAVISVP2,2013-03-05 23:31:00,
2013-03-05 18:36:00,41.1,27.5,29.95,ESE,111,1.0,5.0,58,0.00,,,0.00,WUHU216DAVISVP2,2013-03-05 23:36:00,
2013-03-05 18:41:00,41.1,27.5,29.96,ESE,103,0.0,5.0,58,0.00,,,0.00,WUHU216DAVISVP2,2013-03-05 23:41:00,
2013-03-05 18:46:00,41.1,27.5,29.96,SSE,149,2.0,5.0,58,0.00,,,0.00,WUHU216DAVISVP2,2013-03-05 23:46:00,
2013-03-05 18:51:00,41.1,27.9,29.95,ESE,117,2.0,5.0,59,0.00,,,0.00,WUHU216DAVISVP2,2013-03-05 23:51:00,
2013-03-05 18:56:00,41.1,27.9,29.95,ESE,106,1.0,5.0,59,0.00,,,0.00,WUHU216DAVISVP2,2013-03-05 23:56:00,
2013-03-05 19:01:00,41.1,27.9,29.95,ESE,105,2.0,4.0,59,0.00,,,0.00,WUHU216DAVISVP2,2013-03-06 00:01:00,
2013-03-05 19:06:00,41.1,27.9,29.95,ESE,108,2.0,4.0,59,0.00,,,0.00,WUHU216DAVISVP2,2013-03-06 00:06:00,
2013-03-05 19:11:00,41.1,27.9,29.95,ESE,115,1.0,4.0,59,0.00,,,0.00,WUHU216DAVISVP2,2013-03-06 00:11:00,
2013-03-05 19:16:00,41.1,27.9,29.95,ESE,115,1.0,4.0,59,0.00,,,0.00,WUHU216DAVISVP2,2013-03-06 00:16:00,
2013-03-05 19:21:00,41.1,27.9,29.94,ESE,115,1.0,3.0,59,0.00,,,0.00,WUHU216DAVISVP2,2013-03-06 00:21:00,
2013-03-05 19:26:00,41.0,27.8,29.94,ESE,115,0.0,3.0,59,0.00,,,0.00,WUHU216DAVISVP2,2013-03-06 00:26:00,
2013-03-05 19:31:00,41.0,27.8,29.94,ESE,115,1.0,3.0,59,0.00,,,0.00,WUHU216DAVISVP2,2013-03-06 00:31:00,
2013-03-05 19:36:00,40.9,27.7,29.94,ESE,115,1.0,3.0,59,0.00,,,0.00,WUHU216DAVISVP2,2013-03-06 00:36:00,
2013-03-05 19:41:00,40.9,28.1,29.94,ESE,115,1.0,3.0,60,0.00,,,0.00,WUHU216DAVISVP2,2013-03-06 00:41:00,
2013-03-05 19:46:00,40.9,28.1,29.94,ESE,115,1.0,3.0,60,0.00,,,0.00,WUHU216DAVISVP2,2013-03-06 00:46:00,
2013-03-05 19:51:00,40.9,28.1,29.93,ESE,115,1.0,3.0,60,0.00,,,0.00,WUHU216DAVISVP2,2013-03-06 00:51:00,
2013-03-05 19:56:00,40.9,28.1,29.94,ESE,115,1.0,3.0,60,0.00,,,0.00,WUHU216DAVISVP2,2013-03-06 00:56:00,
2013-03-05 20:01:00,40.9,28.1,29.94,ESE,115,0.0,3.0,60,0.00,,,0.00,WUHU216DAVISVP2,2013-03-06 01:01:00,
2013-03-05 20:06:00,40.8,28.5,29.94,ESE,115,0.0,3.0,61,0.00,,,0.00,WUHU216DAVISVP2,2013-03-06 01:06:00,
2013-03-05 20:11:00,40.7,28.4,29.94,ESE,115,0.0,3.0,61,0.00,,,0.00,WUHU216DAVISVP2,2013-03-06 01:11:00,
2013-03-05 20:16:00,40.6,28.3,29.93,ESE,115,0.0,3.0,61,0.00,,,0.00,WUHU216DAVISVP2,2013-03-06 01:16:00,
2013-03-05 20:21:00,40.6,28.3,29.93,ESE,115,0.0,3.0,61,0.00,,,0.00,WUHU216DAVISVP2,2013-03-06 01:21:00,
2013-03-05 20:26:00,40.5,28.2,29.93,ESE,115,1.0,2.0,61,0.00,,,0.00,WUHU216DAVISVP2,2013-03-06 01:26:00,
2013-03-05 20:31:00,40.5,28.6,29.93,ESE,115,0.0,3.0,62,0.00,,,0.00,WUHU216DAVISVP2,2013-03-06 01:31:00,
2013-03-05 20:36:00,40.6,28.7,29.93,ESE,115,0.0,3.0,62,0.00,,,0.00,WUHU216DAVISVP2,2013-03-06 01:36:00,
2013-03-05 20:41:00,40.6,28.7,29.93,ESE,113,2.0,5.0,62,0.00,,,0.00,WUHU216DAVISVP2,2013-03-06 01:41:00,
2013-03-05 20:46:00,40.6,28.7,29.93,ESE,120,7.0,7.0,62,0.00,,,0.00,WUHU216DAVISVP2,2013-03-06 01:46:00,
2013-03-05 20:51:00,40.7,28.8,29.93,ESE,116,1.0,7.0,62,0.00,,,0.00,WUHU216DAVISVP2,2013-03-06 01:51:00,
2013-03-05 20:56:00,40.7,29.2,29.92,ESE,107,2.0,7.0,63,0.00,,,0.00,WUHU216DAVISVP2,2013-03-06 01:56:00,
2013-03-05 21:01:00,40.7,29.5,29.92,ESE,112,2.0,7.0,64,0.00,,,0.00,WUHU216DAVISVP2,2013-03-06 02:01:00,
2013-03-05 21:06:00,40.8,30.0,29.92,East,97,2.0,6.0,65,0.00,,,0.00,WUHU216DAVISVP2,2013-03-06 02:06:00,
2013-03-05 21:11:00,40.8,30.4,29.92,ESE,118,1.0,7.0,66,0.00,,,0.00,WUHU216DAVISVP2,2013-03-06 02:11:00,
2013-03-05 21:16:00,40.8,30.0,29.92,ENE,78,2.0,7.0,65,0.00,,,0.00,WUHU216DAVISVP2,2013-03-06 02:16:00,
2013-03-05 21:21:00,40.8,29.6,29.92,East,94,5.0,7.0,64,0.00,,,0.00,WUHU216DAVISVP2,2013-03-06 02:21:00,
2013-03-05 21:26:00,40.8,28.9,29.91,SE,132,7.0,8.0,62,0.00,,,0.00,WUHU216DAVISVP2,2013-03-06 02:26:00,
2013-03-05 21:31:00,40.8,28.9,29.91,East,82,3.0,8.0,62,0.00,,,0.00,WUHU216DAVISVP2,2013-03-06 02:31:00,
2013-03-05 21:36:00,40.8,29.3,29.91,ESE,110,4.0,8.0,63,0.00,,,0.00,WUHU216DAVISVP2,2013-03-06 02:36:00,
2013-03-05 21:41:00,40.7,30.3,29.91,SE,138,6.0,11.0,66,0.00,,,0.00,WUHU216DAVISVP2,2013-03-06 02:41:00,
2013-03-05 21:46:00,40.4,30.8,29.90,East,101,3.0,13.0,68,0.00,,,0.00,WUHU216DAVISVP2,2013-03-06 02:46:00,
2013-03-05 21:51:00,40.1,30.8,29.90,ESE,120,10.0,13.0,69,0.00,,,0.00,WUHU216DAVISVP2,2013-03-06 02:51:00,
2013-03-05 21:56:00,39.8,30.9,29.90,ESE,111,7.0,13.0,70,0.00,,,0.00,WUHU216DAVISVP2,2013-03-06 02:56:00,
2013-03-05 22:01:00,39.6,30.7,29.89,East,84,1.0,13.0,70,0.00,,,0.00,WUHU216DAVISVP2,2013-03-06 03:01:00,
2013-03-05 22:06:00,39.4,30.5,29.89,ESE,112,5.0,11.0,70,0.00,,,0.00,WUHU216DAVISVP2,2013-03-06 03:06:00,
2013-03-05 22:11:00,39.2,30.3,29.89,ESE,104,2.0,11.0,70,0.00,,,0.00,WUHU216DAVISVP2,2013-03-06 03:11:00,
2013-03-05 22:16:00,39.2,30.3,29.89,East,98,1.0,10.0,70,0.00,,,0.00,WUHU216DAVISVP2,2013-03-06 03:16:00,
2013-03-05 22:21:00,39.1,30.2,29.89,East,94,3.0,10.0,70,0.00,,,0.00,WUHU216DAVISVP2,2013-03-06 03:21:00,
2013-03-05 22:26:00,39.1,30.2,29.89,ESE,109,5.0,8.0,70,0.00,,,0.00,WUHU216DAVISVP2,2013-03-06 03:26:00,
2013-03-05 22:31:00,39.1,29.9,29.89,ENE,76,3.0,8.0,69,0.00,,,0.00,WUHU216DAVISVP2,2013-03-06 03:31:00,
2013-03-05 22:36:00,39.1,29.9,29.88,ESE,115,1.0,8.0,69,0.00,,,0.00,WUHU216DAVISVP2,2013-03-06 03:36:00,
2013-03-05 22:41:00,39.1,29.9,29.88,ESE,115,0.0,8.0,69,0.00,,,0.00,WUHU216DAVISVP2,2013-03-06 03:41:00,
2013-03-05 22:46:00,39.1,29.9,29.88,SE,129,1.0,7.0,69,0.00,,,0.00,WUHU216DAVISVP2,2013-03-06 03:46:00,
2013-03-05 22:51:00,39.1,29.9,29.88,ESE,123,2.0,5.0,69,0.00,,,0.00,WUHU216DAVISVP2,2013-03-06 03:51:00,
2013-03-05 22:56:00,39.1,29.9,29.88,ESE,113,0.0,5.0,69,0.00,,,0.00,WUHU216DAVISVP2,2013-03-06 03:56:00,
2013-03-05 23:01:00,39.1,29.9,29.88,East,95,0.0,4.0,69,0.00,,,0.00,WUHU216DAVISVP2,2013-03-06 04:01:00,
2013-03-05 23:06:00,39.1,29.9,29.88,East,94,5.0,8.0,69,0.00,,,0.00,WUHU216DAVISVP2,2013-03-06 04:06:00,
2013-03-05 23:11:00,39.1,29.9,29.88,East,92,6.0,8.0,69,0.00,,,0.00,WUHU216DAVISVP2,2013-03-06 04:11:00,
2013-03-05 23:16:00,39.1,29.9,29.87,SE,130,2.0,8.0,69,0.00,,,0.00,WUHU216DAVISVP2,2013-03-06 04:16:00,
2013-03-05 23:21:00,39.0,29.8,29.87,ESE,102,3.0,13.0,69,0.00,,,0.00,WUHU216DAVISVP2,2013-03-06 04:21:00,
2013-03-05 23:26:00,39.0,29.4,29.86,ESE,109,2.0,13.0,68,0.00,,,0.00,WUHU216DAVISVP2,2013-03-06 04:26:00,
2013-03-05 23:31:00,38.9,29.7,29.86,East,80,0.0,13.0,69,0.00,,,0.00,WUHU216DAVISVP2,2013-03-06 04:31:00,
2013-03-05 23:36:00,38.9,29.3,29.85,East,82,2.0,9.0,68,0.00,,,0.00,WUHU216DAVISVP2,2013-03-06 04:36:00,
2013-03-05 23:41:00,38.9,29.7,29.85,East,94,0.0,9.0,69,0.00,,,0.00,WUHU216DAVISVP2,2013-03-06 04:41:00,
2013-03-05 23:46:00,38.8,29.2,29.85,East,90,0.0,9.0,68,0.00,,,0.00,WUHU216DAVISVP2,2013-03-06 04:46:00,
2013-03-05 23:51:00,38.8,29.2,29.85,ESE,115,1.0,9.0,68,0.00,,,0.00,WUHU216DAVISVP2,2013-03-06 04:51:00,
2013-03-05 23:56:00,38.7,29.5,29.84,ESE,110,3.0,7.0,69,0.00,,,0.00,WUHU216DAVISVP2,2013-03-06 04:56:00,